SBI2903 UNKL-UNAA

Flight info

Callsign SBI2903
Flight time N/A
Altitude 28000
Route IVRAS2F IVRAS G808 MIKET A817 RINAG RINAG1E
Aircraft A319/M-SDE3FGHIRWY/LB1

Departure

Time 2026-04-30 14:21
Airport Krasnoyarsk International Airport (UNKL)

Arrival

Time N/A
Airport Abakan International Airport (UNAA)
Time Latitude Longitude Altitude Speed Heading
2026-04-30 14:00 56.17924 92.48616 951 ft 0 kts 21°
2026-04-30 14:09 56.17906 92.48604 952 ft 4 kts 19°
2026-04-30 14:09 56.17882 92.48591 950 ft 3 kts
2026-04-30 14:09 56.17847 92.48601 951 ft 3 kts 313°
2026-04-30 14:10 56.17843 92.48610 951 ft 0 kts 295°
2026-04-30 14:13 56.17843 92.48609 951 ft 0 kts 295°
2026-04-30 14:13 56.17843 92.48607 951 ft 1 kts 295°
2026-04-30 14:13 56.17851 92.48572 950 ft 5 kts 291°
2026-04-30 14:13 56.17852 92.48494 951 ft 8 kts 243°
2026-04-30 14:14 56.17800 92.48428 951 ft 11 kts 205°
2026-04-30 14:14 56.17729 92.48444 951 ft 12 kts 122°
2026-04-30 14:14 56.17692 92.48592 951 ft 14 kts 112°
2026-04-30 14:14 56.17651 92.48763 951 ft 16 kts 113°
2026-04-30 14:15 56.17605 92.48957 951 ft 18 kts 113°
2026-04-30 14:15 56.17575 92.49083 951 ft 10 kts 113°
2026-04-30 14:15 56.17544 92.49210 951 ft 12 kts 113°
2026-04-30 14:15 56.17509 92.49365 951 ft 14 kts 112°
2026-04-30 14:16 56.17467 92.49538 950 ft 16 kts 114°
2026-04-30 14:16 56.17419 92.49733 951 ft 18 kts 113°
2026-04-30 14:16 56.17367 92.49950 951 ft 20 kts 113°
2026-04-30 14:16 56.17320 92.50146 951 ft 15 kts 113°
2026-04-30 14:17 56.17274 92.50336 951 ft 17 kts 113°
2026-04-30 14:17 56.17225 92.50542 949 ft 13 kts 113°
2026-04-30 14:17 56.17190 92.50696 951 ft 14 kts 110°
2026-04-30 14:17 56.17149 92.50866 950 ft 16 kts 113°
2026-04-30 14:18 56.17103 92.51056 951 ft 18 kts 113°
2026-04-30 14:18 56.17051 92.51270 950 ft 19 kts 113°
2026-04-30 14:18 56.16950 92.51703 950 ft 15 kts 112°
2026-04-30 14:19 56.16851 92.51963 949 ft 7 kts 160°
2026-04-30 14:19 56.16797 92.51998 951 ft 9 kts 160°
2026-04-30 14:19 56.16733 92.52040 950 ft 11 kts 159°
2026-04-30 14:20 56.16664 92.52007 951 ft 11 kts 239°
2026-04-30 14:20 56.16684 92.51879 952 ft 12 kts 294°
2026-04-30 14:20 56.17066 92.50265 949 ft 140 kts 293°
2026-04-30 14:21 56.17518 92.48346 1097 ft 178 kts 292°
2026-04-30 14:21 56.18006 92.46339 1810 ft 178 kts 293°
2026-04-30 14:21 56.19043 92.41971 2835 ft 209 kts 292°
2026-04-30 14:22 56.19627 92.39488 3260 ft 231 kts 292°
2026-04-30 14:22 56.20111 92.33510 4741 ft 259 kts 252°
2026-04-30 14:22 56.19141 92.30780 5751 ft 265 kts 223°
2026-04-30 14:23 56.15578 92.29332 7685 ft 281 kts 175°
2026-04-30 14:23 56.11613 92.30256 9478 ft 293 kts 175°
2026-04-30 14:24 56.07414 92.31249 10758 ft 323 kts 175°
2026-04-30 14:24 56.05117 92.31779 11108 ft 345 kts 175°
2026-04-30 14:25 56.00228 92.32875 12493 ft 361 kts 175°
2026-04-30 14:25 55.95159 92.34030 14037 ft 372 kts 175°
2026-04-30 14:26 55.89956 92.35217 15376 ft 382 kts 175°
2026-04-30 14:26 55.87335 92.35802 16023 ft 387 kts 175°